Location: *
(46.1333°S, 161.2167°W)
Time: 04:21:54
(UTC+00:00)

Cosmos 1726 Rocket - Pass Details

Date: 15 July 2020
Orbit: 603 x 629 km, 82.5° (Epoch: 10 August)

Event Time Altitude Azimuth Distance (km) Brightness Sun altitude
Rises 17:19:46 0° 195° (SSW) 2,906 6.7 -10.5°
Reaches altitude 10° 17:22:03 10° 200° (SSW) 1,991 5.8 -10.1°
Maximum altitude 17:26:17 47° 273° (W) 815 3.8 -9.4°
Drops below altitude 10° 17:30:27 10° 347° (NNW) 1,963 6.2 -8.7°
Sets 17:32:42 0° 352° (N) 2,859 7.2 -8.4°
